Cloud_Cover
100 100 100 96 100 99 55 54 100 34 0 0 0 0 0 0 0 0 0 0 0 0 0 0 2 5 4 4 6 38 33 6 6 5 3 6 5 5 5 5 6 21 5
0 1 15 100 100 100 97 74 91 100 100 5 0 0 0 0 0 0 0 0 0 0 0 5 3 0 0 4 5 32 5 6 6 24 5 48 9 5 10 16 37 44 56
0 0 0 6 100 100 100 100 100 100 99 12 0 0 0 0 0 0 0 0 0 0 0 0 0 0 5 5 0 4 6 12 62 92 50 17 45 48 5 34 86 98 86
0 0 0 0 23 100 100 98 100 100 100 100 39 0 0 0 0 0 0 0 0 0 0 0 0 0 0 3 1 3 4 5 4 6 7 72 94 100 91 11 5 5 97
0 0 0 0 0 46 100 100 100 98 100 100 87 91 0 0 0 0 0 0 0 0 0 0 0 0 0 0 0 1 3 6 16 20 19 5 9 83 70 71 21 73 95
0 0 0 0 0 0 33 100 100 100 100 100 100 100 8 0 0 0 0 0 0 0 0 0 0 0 0 0 0 0 10 18 20 92 100 100 99 16 32 20 44 5 6
0 0 0 0 0 0 0 25 97 100 100 90 97 100 100 100 100 74 92 99 42 30 3 0 0 0 0 0 6 19 5 9 57 74 28 98 89 65 96 38 9 6 79
0 0 0 0 0 0 0 0 4 90 96 86 90 100 100 100 100 100 100 100 100 100 100 82 87 61 60 39 84 84 24 15 6 17 6 96 100 100 100 96 67 98 58
0 0 0 0 0 0 0 0 0 2 7 27 100 58 100 100 100 100 100 100 100 100 100 97 100 100 100 100 100 100 99 97 93 58 65 41 6 12 81 82 25 21 49
0 0 0 0 0 0 0 0 0 30 41 18 100 57 100 100 100 100 100 100 100 100 100 100 100 100 100 100 100 100 100 87 100 100 100 99 85 53 31 49 36 99 85
0 0 0 0 0 0 0 0 0 60 45 72 87 51 98 100 100 100 100 100 100 100 100 100 100 100 100 100 100 100 100 100 100 100 100 100 97 100 78 20 6 88 88
43 58 33 10 0 0 26 25 8 98 100 100 87 80 64 100 100 100 100 100 100 100 100 100 100 100 100 100 100 100 100 100 95 100 96 100 100 100 100 76 33 69 36
97 100 100 100 23 66 100 100 100 99 100 100 95 74 100 100 100 100 100 100 100 100 100 100 100 100 100 100 100 100 100 100 100 100 100 100 100 100 100 100 99 100 100
100 100 100 96 81 100 100 100 100 87 100 100 100 100 100 100 100 100 100 100 100 100 100 79 100 100 100 100 100 100 100 100 100 100 100 100 100 100 100 100 100 100 100
100 100 100 100 99 100 100 100 100 100 100 100 100 100 100 100 100 100 100 100 100 100 100 100 100 100 100 100 100 100 100 100 100 100 100 100 100 100 100 100 100 100 100
100 100 100 100 100 100 100 100 100 100 100 100 100 98 100 100 100 100 100 100 100 100 100 100 95 98 90 100 100 100 100 100 100 100 100 100 100 100 100 100 100 100 100
100 100 100 100 100 100 100 100 100 100 100 100 100 100 100 100 100 100 100 100 100 100 100 100 95 85 100 100 100 100 100 100 100 100 88 100 100 100 100 100 100 100 100
100 100 100 100 100 100 100 100 100 100 100 100 100 100 100 100 100 100 100 100 100 100 100 100 100 100 100 97 99 100 100 100 100 100 100 100 100 100 100 100 100 100 100
100 100 100 100 100 100 100 100 100 100 100 100 100 100 100 100 100 100 100 100 100 100 100 100 100 97 92 90 99 100 100 100 96 100 100 100 100 100 100 100 100 100 100
100 100 100 100 100 100 100 100 100 99 100 100 100 100 82 100 100 100 100 100 100 100 100 100 100 100 100 84 99 100 97 100 100 80 96 100 100 100 100 100 100 100 100
100 100 100 100 100 100 100 100 100 100 100 100 100 100 100 100 100 100 100 100 100 100 100 97 100 100 100 100 100 100 88 100 100 100 100 100 96 96 100 100 100 100 100
100 100 100 100 100 100 100 100 100 100 100 100 100 100 100 100 100 100 100 100 100 100 100 100 100 100 100 100 100 100 100 100 98 100 68 100 20 67 94 100 100 100 100
100 100 100 100 100 100 100 100 100 100 100 100 100 100 100 100 100 100 100 100 100 100 100 100 100 100 100 98 70 18 19 10 16 100 100 100 100 100 100 100 100 100 100
100 100 100 100 100 99 77 86 68 99 100 100 100 100 100 100 100 100 100 100 100 100 100 100 100 100 100 76 61 5 47 80 5 18 100 100 100 100 100 100 100 100 95
100 87 100 100 90 79 89 64 89 99 98 100 100 100 87 100 100 100 100 100 93 100 100 100 100 80 9 48 12 5 4 5 4 92 29 97 100 100 98 100 100 98 58
100 100 76 94 100 100 100 100 100 76 99 100 100 100 100 100 100 100 100 100 100 100 100 100 100 100 5 5 5 5 1 5 7 2 2 5 5 20 5 5 28 75 74